Time,TemperatureF,DewpointF,PressureIn,WindDirection,WindDirectionDegrees,WindSpeedMPH,WindSpeedGustMPH,Humidity,HourlyPrecipIn,Conditions,Clouds,dailyrainin,SoftwareType,DateUTC
2013-06-27 00:04:00,64.2,59.3,29.79,NNW,337,0.0,-999.0,84,-99.99,,,0.00,Acu-Link.com,2013-06-27 07:04:00,
2013-06-27 00:20:00,64.0,59.1,29.79,West,270,1.1,-999.0,84,-99.99,,,0.00,Acu-Link.com,2013-06-27 07:20:00,
2013-06-27 00:35:00,63.5,58.9,29.79,West,270,0.0,-999.0,85,-99.99,,,0.00,Acu-Link.com,2013-06-27 07:35:00,
2013-06-27 00:50:00,62.6,58.3,29.79,South,180,0.0,-999.0,86,-99.99,,,0.00,Acu-Link.com,2013-06-27 07:50:00,
2013-06-27 01:06:00,61.9,58.0,29.79,West,270,0.0,-999.0,87,-99.99,,,0.00,Acu-Link.com,2013-06-27 08:06:00,
2013-06-27 01:21:00,61.7,58.1,29.79,SW,225,0.0,-999.0,88,-99.99,,,0.00,Acu-Link.com,2013-06-27 08:21:00,
2013-06-27 01:37:00,61.3,57.7,29.80,West,270,0.0,-999.0,88,-99.99,,,0.00,Acu-Link.com,2013-06-27 08:37:00,
2013-06-27 01:52:00,60.8,57.5,29.80,WSW,247,0.0,-999.0,89,-99.99,,,0.00,Acu-Link.com,2013-06-27 08:52:00,
2013-06-27 02:07:00,60.3,57.4,29.79,WSW,247,0.0,-999.0,90,-99.99,,,0.00,Acu-Link.com,2013-06-27 09:07:00,
2013-06-27 02:22:00,59.9,57.3,29.79,NNW,337,0.0,-999.0,91,-99.99,,,0.00,Acu-Link.com,2013-06-27 09:22:00,
2013-06-27 02:37:00,59.4,57.1,29.79,WNW,292,0.0,-999.0,92,-99.99,,,0.00,Acu-Link.com,2013-06-27 09:37:00,
2013-06-27 02:53:00,58.8,56.5,29.79,West,270,0.0,-999.0,92,-99.99,,,0.00,Acu-Link.com,2013-06-27 09:53:00,
2013-06-27 03:08:00,58.5,56.2,29.80,West,270,0.0,-999.0,92,-99.99,,,0.00,Acu-Link.com,2013-06-27 10:08:00,
2013-06-27 03:23:00,58.6,56.6,29.80,WNW,292,0.0,-999.0,93,-99.99,,,0.00,Acu-Link.com,2013-06-27 10:23:00,
2013-06-27 03:39:00,59.7,57.7,29.79,West,270,0.0,-999.0,93,-99.99,,,0.00,Acu-Link.com,2013-06-27 10:39:00,
2013-06-27 03:54:00,59.7,57.7,29.80,WNW,292,0.0,-999.0,93,-99.99,,,0.00,Acu-Link.com,2013-06-27 10:54:00,
2013-06-27 04:09:00,59.5,57.5,29.79,WNW,292,2.7,-999.0,93,-99.99,,,0.00,Acu-Link.com,2013-06-27 11:09:00,
2013-06-27 04:24:00,59.7,57.7,29.79,NNW,337,2.2,-999.0,93,-99.99,,,0.00,Acu-Link.com,2013-06-27 11:24:00,
2013-06-27 04:40:00,59.7,57.7,29.79,WSW,247,0.0,-999.0,93,-99.99,,,0.00,Acu-Link.com,2013-06-27 11:40:00,
2013-06-27 04:55:00,59.7,57.7,29.79,WNW,292,3.2,-999.0,93,-99.99,,,0.00,Acu-Link.com,2013-06-27 11:55:00,
2013-06-27 05:10:00,59.7,57.7,29.79,WNW,292,2.2,-999.0,93,-99.99,,,0.00,Acu-Link.com,2013-06-27 12:10:00,
2013-06-27 05:25:00,59.7,57.7,29.80,WNW,292,1.1,-999.0,93,-99.99,,,0.00,Acu-Link.com,2013-06-27 12:25:00,
2013-06-27 05:40:00,59.7,57.7,29.80,NE,45,0.0,-999.0,93,-99.99,,,0.00,Acu-Link.com,2013-06-27 12:40:00,
2013-06-27 05:56:00,59.9,57.9,29.80,ESE,112,1.1,-999.0,93,-99.99,,,0.00,Acu-Link.com,2013-06-27 12:56:00,
2013-06-27 06:11:00,61.0,59.0,29.80,SW,225,3.2,-999.0,93,-99.99,,,0.00,Acu-Link.com,2013-06-27 13:11:00,
2013-06-27 06:26:00,61.3,59.3,29.79,NW,315,0.0,-999.0,93,-99.99,,,0.00,Acu-Link.com,2013-06-27 13:26:00,
2013-06-27 06:42:00,62.2,59.8,29.79,WNW,292,1.7,-999.0,92,-99.99,,,0.00,Acu-Link.com,2013-06-27 13:42:00,
2013-06-27 06:57:00,64.4,61.4,29.80,West,270,0.0,-999.0,90,-99.99,,,0.00,Acu-Link.com,2013-06-27 13:57:00,
2013-06-27 07:12:00,66.0,62.0,29.80,West,270,1.7,-999.0,87,-99.99,,,0.00,Acu-Link.com,2013-06-27 14:12:00,
2013-06-27 07:28:00,69.3,63.6,29.81,West,270,0.0,-999.0,82,-99.99,,,0.00,Acu-Link.com,2013-06-27 14:28:00,
2013-06-27 07:43:00,72.5,64.5,29.81,ESE,112,0.0,-999.0,76,-99.99,,,0.00,Acu-Link.com,2013-06-27 14:43:00,
2013-06-27 07:58:00,74.8,64.8,29.81,NE,45,1.7,-999.0,71,-99.99,,,0.00,Acu-Link.com,2013-06-27 14:58:00,
2013-06-27 08:13:00,74.8,64.8,29.82,South,180,0.0,-999.0,71,-99.99,,,0.00,Acu-Link.com,2013-06-27 15:13:00,
2013-06-27 08:29:00,75.2,65.1,29.82,NW,315,1.7,-999.0,71,-99.99,,,0.00,Acu-Link.com,2013-06-27 15:29:00,
2013-06-27 08:44:00,76.6,65.7,29.83,WNW,292,2.2,-999.0,69,-99.99,,,0.00,Acu-Link.com,2013-06-27 15:44:00,
2013-06-27 08:59:00,77.4,66.0,29.83,SSE,157,0.0,-999.0,68,-99.99,,,0.00,Acu-Link.com,2013-06-27 15:59:00,
2013-06-27 09:14:00,78.6,66.7,29.83,South,180,1.1,-999.0,67,-99.99,,,0.00,Acu-Link.com,2013-06-27 16:14:00,
2013-06-27 09:30:00,79.7,66.9,29.83,WNW,292,1.7,-999.0,65,-99.99,,,0.00,Acu-Link.com,2013-06-27 16:30:00,
2013-06-27 09:45:00,80.8,67.0,29.83,South,180,1.7,-999.0,63,-99.99,,,0.00,Acu-Link.com,2013-06-27 16:45:00,
2013-06-27 10:00:00,82.4,67.1,29.83,West,270,2.7,-999.0,60,-99.99,,,0.00,Acu-Link.com,2013-06-27 17:00:00,
2013-06-27 10:16:00,83.3,67.0,29.83,ENE,67,2.7,-999.0,58,-99.99,,,0.00,Acu-Link.com,2013-06-27 17:16:00,
2013-06-27 10:31:00,84.7,66.7,29.83,NE,45,1.7,-999.0,55,-99.99,,,0.00,Acu-Link.com,2013-06-27 17:31:00,
2013-06-27 10:46:00,87.1,67.9,29.83,SE,135,1.1,-999.0,53,-99.99,,,0.00,Acu-Link.com,2013-06-27 17:46:00,
2013-06-27 11:02:00,85.8,65.5,29.83,SW,225,2.7,-999.0,51,-99.99,,,0.00,Acu-Link.com,2013-06-27 18:02:00,
2013-06-27 11:17:00,87.8,66.8,29.83,SE,135,1.7,-999.0,50,-99.99,,,0.00,Acu-Link.com,2013-06-27 18:17:00,
2013-06-27 11:32:00,89.1,65.6,29.83,SSE,157,4.7,-999.0,46,-99.99,,,0.00,Acu-Link.com,2013-06-27 18:32:00,
2013-06-27 11:48:00,90.0,63.8,29.82,WSW,247,2.2,-999.0,42,-99.99,,,0.00,Acu-Link.com,2013-06-27 18:48:00,
2013-06-27 12:03:00,91.0,62.6,29.82,WNW,292,1.7,-999.0,39,-99.99,,,0.00,Acu-Link.com,2013-06-27 19:03:00,
2013-06-27 12:18:00,91.6,63.8,29.82,SSE,157,1.7,-999.0,40,-99.99,,,0.00,Acu-Link.com,2013-06-27 19:18:00,
2013-06-27 12:33:00,93.2,63.0,29.82,WSW,247,1.7,-999.0,37,-99.99,,,0.00,Acu-Link.com,2013-06-27 19:33:00,
2013-06-27 12:49:00,92.3,63.7,29.81,South,180,4.7,-999.0,39,-99.99,,,0.00,Acu-Link.com,2013-06-27 19:49:00,
2013-06-27 13:04:00,93.9,64.4,29.81,West,270,2.2,-999.0,38,-99.99,,,0.00,Acu-Link.com,2013-06-27 20:04:00,
2013-06-27 13:19:00,93.4,64.7,29.81,ESE,112,6.8,-999.0,39,-99.99,,,0.00,Acu-Link.com,2013-06-27 20:19:00,
2013-06-27 13:35:00,93.2,63.8,29.81,NNE,22,6.3,-999.0,38,-99.99,,,0.00,Acu-Link.com,2013-06-27 20:35:00,
2013-06-27 13:50:00,93.4,63.2,29.80,West,270,4.2,-999.0,37,-99.99,,,0.00,Acu-Link.com,2013-06-27 20:50:00,
2013-06-27 14:05:00,95.5,64.2,29.80,ESE,112,4.2,-999.0,36,-99.99,,,0.00,Acu-Link.com,2013-06-27 21:05:00,
2013-06-27 14:20:00,93.9,65.9,29.79,SW,225,3.2,-999.0,40,-99.99,,,0.00,Acu-Link.com,2013-06-27 21:20:00,
2013-06-27 14:50:00,94.1,64.6,29.79,ESE,112,1.1,-999.0,38,-99.99,,,0.00,Acu-Link.com,2013-06-27 21:50:00,
2013-06-27 15:05:00,94.8,65.2,29.78,North,0,3.2,-999.0,38,-99.99,,,0.00,Acu-Link.com,2013-06-27 22:05:00,
2013-06-27 15:20:00,96.1,64.8,29.78,South,180,3.7,-999.0,36,-99.99,,,0.00,Acu-Link.com,2013-06-27 22:20:00,
2013-06-27 15:35:00,96.4,64.2,29.77,South,180,5.8,-999.0,35,-99.99,,,0.00,Acu-Link.com,2013-06-27 22:35:00,
2013-06-27 15:51:00,95.9,63.8,29.77,SSE,157,3.2,-999.0,35,-99.99,,,0.00,Acu-Link.com,2013-06-27 22:51:00,
2013-06-27 16:06:00,95.2,64.0,29.77,NNW,337,4.2,-999.0,36,-99.99,,,0.00,Acu-Link.com,2013-06-27 23:06:00,
2013-06-27 16:21:00,95.7,64.4,29.77,SSW,202,4.7,-999.0,36,-99.99,,,0.00,Acu-Link.com,2013-06-27 23:21:00,
2013-06-27 16:36:00,95.0,63.0,29.76,South,180,3.2,-999.0,35,-99.99,,,0.00,Acu-Link.com,2013-06-27 23:36:00,
2013-06-27 16:52:00,95.4,63.4,29.76,SSE,157,4.2,-999.0,35,-99.99,,,0.00,Acu-Link.com,2013-06-27 23:52:00,
2013-06-27 17:38:00,95.0,61.3,29.75,West,270,5.3,-999.0,33,-99.99,,,0.00,Acu-Link.com,2013-06-28 00:38:00,
2013-06-27 17:53:00,94.8,62.0,29.75,South,180,1.7,-999.0,34,-99.99,,,0.00,Acu-Link.com,2013-06-28 00:53:00,
2013-06-27 18:08:00,94.3,61.6,29.74,SSE,157,4.2,-999.0,34,-99.99,,,0.00,Acu-Link.com,2013-06-28 01:08:00,
2013-06-27 18:23:00,93.7,61.0,29.74,WSW,247,4.2,-999.0,34,-99.99,,,0.00,Acu-Link.com,2013-06-28 01:23:00,
2013-06-27 18:39:00,92.8,61.1,29.74,South,180,2.7,-999.0,35,-99.99,,,0.00,Acu-Link.com,2013-06-28 01:39:00,
2013-06-27 18:54:00,92.3,61.4,29.74,WNW,292,4.2,-999.0,36,-99.99,,,0.00,Acu-Link.com,2013-06-28 01:54:00,
2013-06-27 19:09:00,88.2,64.1,29.74,WNW,292,2.7,-999.0,45,-99.99,,,0.00,Acu-Link.com,2013-06-28 02:09:00,
2013-06-27 19:39:00,82.0,62.1,29.74,West,270,3.7,-999.0,51,-99.99,,,0.00,Acu-Link.com,2013-06-28 02:39:00,
2013-06-27 19:55:00,81.0,60.6,29.75,WSW,247,1.7,-999.0,50,-99.99,,,0.00,Acu-Link.com,2013-06-28 02:55:00,
2013-06-27 20:10:00,78.3,60.8,29.75,East,90,1.7,-999.0,55,-99.99,,,0.00,Acu-Link.com,2013-06-28 03:10:00,
2013-06-27 20:25:00,78.3,59.2,29.75,West,270,2.7,-999.0,52,-99.99,,,0.00,Acu-Link.com,2013-06-28 03:25:00,
2013-06-27 20:40:00,77.7,59.7,29.75,NW,315,1.7,-999.0,54,-99.99,,,0.00,Acu-Link.com,2013-06-28 03:40:00,
2013-06-27 20:55:00,76.5,59.6,29.75,SSW,202,0.0,-999.0,56,-99.99,,,0.00,Acu-Link.com,2013-06-28 03:55:00,
2013-06-27 21:10:00,75.0,59.7,29.75,SW,225,0.0,-999.0,59,-99.99,,,0.00,Acu-Link.com,2013-06-28 04:10:00,
2013-06-27 21:26:00,76.3,59.4,29.76,West,270,2.2,-999.0,56,-99.99,,,0.00,Acu-Link.com,2013-06-28 04:26:00,
2013-06-27 21:41:00,75.4,59.1,29.77,WNW,292,1.1,-999.0,57,-99.99,,,0.00,Acu-Link.com,2013-06-28 04:41:00,
2013-06-27 21:56:00,75.2,59.4,29.77,ENE,67,0.0,-999.0,58,-99.99,,,0.00,Acu-Link.com,2013-06-28 04:56:00,
2013-06-27 22:11:00,73.9,59.1,29.77,NW,315,0.0,-999.0,60,-99.99,,,0.00,Acu-Link.com,2013-06-28 05:11:00,
2013-06-27 22:27:00,74.7,59.4,29.77,WNW,292,0.0,-999.0,59,-99.99,,,0.00,Acu-Link.com,2013-06-28 05:27:00,
2013-06-27 22:42:00,74.3,59.5,29.78,WNW,292,3.7,-999.0,60,-99.99,,,0.00,Acu-Link.com,2013-06-28 05:42:00,
2013-06-27 22:57:00,74.7,59.9,29.78,NNW,337,4.2,-999.0,60,-99.99,,,0.00,Acu-Link.com,2013-06-28 05:57:00,
2013-06-27 23:12:00,74.1,59.8,29.77,North,0,0.0,-999.0,61,-99.99,,,0.00,Acu-Link.com,2013-06-28 06:12:00,
2013-06-27 23:28:00,73.9,60.0,29.77,WNW,292,0.0,-999.0,62,-99.99,,,0.00,Acu-Link.com,2013-06-28 06:28:00,
2013-06-27 23:43:00,73.8,60.0,29.76,West,270,1.7,-999.0,62,-99.99,,,0.00,Acu-Link.com,2013-06-28 06:43:00,
2013-06-27 23:58:00,73.6,60.7,29.77,WSW,247,2.2,-999.0,64,-99.99,,,0.00,Acu-Link.com,2013-06-28 06:58:00,